Flag for Switzerland Weather past 2 weeks in Montreux, Vaud, Switzerland

Now
83 °F

Warm.


Feels Like: 84 °F
Forecast: 55 / 72 °F
Wind: 7 mph from North

Location: Aigle

Current Time: Aug 3, 2015 at 4:13:18 PM

Latest Report: Aug 3, 2015 at 3:00 PM


Visibility: N/A

Pressure: 29.98 "Hg

Humidity: 50%

Dew point: 62 °F

Location of MontreuxLocation

Historic Weather in Montreux — Graph

°F

Montreux temperature yesterday

Maximum temperature yesterday: 78 °F (at 6:00 PM)
Minimum temperature yesterday: 60 °F (at 3:00 AM)
Average temperature yesterday: 69 °F

Past Weeks' High & Low Weather Summary

 TemperatureHumidityPressure
High94 °F (Jul 21, 4:00 PM)100% (Aug 2, 3:00 AM)30.09 "Hg (Aug 2, 3:00 AM)
Low49 °F (Jul 31, 7:00 AM)28% (Jul 20, 6:00 PM)29.71 "Hg (Jul 24, 4:00 PM)
Average69 °F70%29.93 "Hg
* Reported Jul 19 2:00 PM — Aug 3 2:00 PM, Montreux, Weather by CustomWeather, © 2015

Note: Actual official high and low records may vary slightly from our data, if they occured in-between our weather recording intervals... More about our weather records

Advertising

Montreux weather history for previous 24 hours

 ConditionsComfort  
Time TempWeatherWind HumidityBarometerVisibility
2:00 PM
Mon, Aug 3
81 °FPassing clouds.8 mph53%30.00 "Hg25 mi
1:00 PM80 °FWarm.6 mph52%30.01 "HgN/A
12:00 PM78 °FWarm.6 mph59%30.03 "HgN/A
11:00 AM75 °FPassing clouds.1 mph64%30.05 "Hg25 mi
10:00 AM72 °FMild.3 mph69%30.06 "HgN/A
9:00 AM70 °FMild.3 mph77%30.06 "HgN/A
8:00 AM65 °FSunny.1 mph87%30.06 "Hg22 mi
7:00 AM61 °FCool.3 mph94%30.08 "HgN/A
5:00 AM61 °FPassing clouds.1 mph95%30.07 "Hg16 mi
4:00 AM62 °FCool.No wind93%30.06 "HgN/A
3:00 AM62 °FCool.3 mph95%30.06 "HgN/A
2:00 AM63 °FMild.5 mph94%30.05 "HgN/A
1:00 AM63 °FMild.3 mph96%30.06 "HgN/A
12:00 AM64 °FMild.2 mph95%30.05 "HgN/A
10:00 PM
Sun, Aug 2
67 °FMild.3 mph88%30.03 "HgN/A
9:00 PM69 °FMild.3 mph87%30.01 "HgN/A
8:00 PM72 °FPassing clouds.3 mph77%29.97 "Hg19 mi
7:00 PM76 °FMild.5 mph68%29.96 "HgN/A
6:00 PM78 °FWarm.6 mph58%29.97 "HgN/A
5:00 PM78 °FPassing clouds.12 mph59%29.98 "Hg16 mi
4:00 PM76 °FMild.10 mph62%29.99 "HgN/A
Weather by CustomWeather, © 2015

See weather overviewHow to use our weather pages